Location: Dodgeville, WI 53533, USA
(43.0344°N, 90.0900°W)
Time: 23:30:36
(UTC-06:00)

ISS - Pass Details

Date: 28 January 2021
Orbit: 417 x 422 km, 51.6° (Epoch: 05 March)

Event Time Altitude Azimuth Distance (km) Brightness Sun altitude
Rises 19:37:07 0° 305° (NW) 2,375 0.9 -27.3°
Reaches altitude 10° 19:39:24 10° 317° (NW) 1,509 -0.4 -27.7°
Enters shadow 19:39:49 12° 321° (NW) 1,370 -0.7 -27.8°
